星链-5369 (STARLINK-5369 )

导读 | 星芒AI

STARLINK-5369 是 SpaceX Starlink 卫星互联网项目中的一颗低轨卫星,属于第二代 Starlink 卫星星座的一部分。该卫星于2023年发射,旨在为全球提供高速、低延迟的宽带互联网服务。它运行在约550公里高的近地轨道,配备先进通信设备和激光链路,以提升网络性能和卫星间通信能力。Starlink 项目致力于改善偏远地区网络接入,同时支持应急通信和商业应用。

基本信息
目录编号:
54837
目录名称:
STARLINK-5369
国际标识:
2022-177T
轨道中心:
EARTH
卫星名称:
星链-5369
卫星全名:
星链-5369 (STARLINK-5369 )
卫星状态:
在轨 (已飞行1089 天)
发射日期:
2022-12-28 UTC
国别 :
美国 (US)
星等 :
--
轨道信息
数据来源 国际轨道数据 AOE轨道数据
星历时间 2025-12-21T05:18:31+0800
15小时前
查看轨道信息
2025-12-18T20:00:00+0800
3天前
查看轨道信息
半长轴 6937.219km 6937.281km
偏心率 0.0000402 0.0001289
轨道倾角 43.002° 43.004°
近地点辐角 280.570° 249.008°
升交点赤经 201.334° 214.315°
平近点角 79.510° 139.977°
近地点 558.803km 558.251km
远地点 559.361km 560.041km
周期 95.838分钟 95.839分钟
每日圈数 15.025353 15.025152
详细信息
固有亮度:
5
最大亮度:
2.5
卫星平台:
Starlink v1.5
覆盖范围:
全球
运营商:
太空探索技术公司
运营商所在国:
美国
制造商(研发单位):
太空探索技术公司
制造商所在国:
美国
使用方式:
暂无
卫星简介
星链(Starlink)计划是由太空探索技术公司(SpaceX)提出的一个巨型低轨卫星互联网星座项目,计划在2019年至2024年间在太空搭建由约1.2万颗卫星组成的“星链”网络,其中1584颗将部署在地球上空550千米处的近地轨道,并从2020年开始工作。该卫星仍在工作。
2D轨道图
3D轨道图
轨道高度分析图
轨道倾角分析图
轨道综合分析图
查看轨道综合分析图